Hourly Data Report for September 10, 2017

All times are specified in Local Standard Time (LST). Add 1 hour to adjust for Daylight Saving Time where and when it is observed.

CHARLOTTETOWN A
PRINCE EDWARD ISLAND

46°17'21.000" N
63°07'09.000" W
48.50 m
8300301
71706
YYG

Download Data

Hourly Data (September 2017)
Hourly Data Report for September 10, 2017
Temp Definition
°C
Dew Point Temp Definition
°C
Rel Hum Definition
%
Wind Dir Definition
10's deg

Wind Spd Definition
km/h
Visibility Definition
km
Stn Press Definition
kPa
Hmdx Definition


Wind Chill Definition


Weather Definition


TIME
00:00 Legend Double Dagger 15.1 14.5 96 1 17 24.1 101.66     LegendNANA
01:00 Legend Double Dagger 15.1 14.3 94 1 15 24.1 101.65     LegendNANA
02:00 Legend Double Dagger 14.7 13.6 93 2 18 24.1 101.63     Cloudy
03:00 Legend Double Dagger 14.8 13.6 93 1 16 24.1 101.60     LegendNANA
04:00 Legend Double Dagger 14.8 13.5 92 1 18 24.1 101.62     LegendNANA
05:00 Legend Double Dagger 14.3 13.0 92 1 13 24.1 101.67     Cloudy
06:00 Legend Double Dagger 14.1 12.2 88 1 14 24.1 101.72     LegendNANA
07:00 Legend Double Dagger 13.9 11.8 87 36 11 24.1 101.74     LegendNANA
08:00 Legend Double Dagger 13.9 11.4 85 36 14 24.1 101.75     Cloudy
09:00 Legend Double Dagger 14.4 11.3 81 2 17 24.1 101.79     LegendNANA
10:00 Legend Double Dagger 14.7 11.2 79 1 14 24.1 101.76     LegendNANA
11:00 Legend Double Dagger 14.3 10.8 79 2 22 24.1 101.75     Cloudy
12:00 Legend Double Dagger 15.9 10.6 70 36 16 24.1 101.68     LegendNANA
13:00 Legend Double Dagger 15.7 10.0 69 1 26 24.1 101.65     LegendNANA
14:00 Legend Double Dagger 16.6 10.6 67 2 22 24.1 101.57     Mostly Cloudy
15:00 Legend Double Dagger 15.4 10.1 70 2 21 24.1 101.52     LegendNANA
16:00 Legend Double Dagger 15.4 10.0 70 36 20 24.1 101.47     LegendNANA
17:00 Legend Double Dagger 15.2 10.6 74 35 18 24.1 101.47     Mainly Clear
18:00 Legend Double Dagger 14.1 10.3 78 35 10 24.1 101.46     LegendNANA
19:00 Legend Double Dagger 12.2 9.8 85 34 8 24.1 101.46     LegendNANA
20:00 Legend Double Dagger 11.4 9.8 90 33 7 24.1 101.46     Mainly Clear
21:00 Legend Double Dagger 10.5 9.3 92 33 8 24.1 101.42     LegendNANA
22:00 Legend Double Dagger 10.1 8.9 92 31 7 24.1 101.37     LegendNANA
23:00 Legend Double Dagger 10.1 9.0 93 32 9 24.1 101.31     Mainly Clear

Notes on Data Quality.

Legend

  • E = Estimated
  • M = Missing
  • NA = Not Available
  • ‡ = Partner data that is not subject to review by the National Climate Archives
Date modified: